Weather in Nikolskoye-na-Cheremshane

Russia / Ulyanovsk Oblast     54°02′56″N   49°10′45″E
temp.,
°C
wind,
m/s
gust,
m/s
humid.,
%
clouds,
%
prec.,
mm/h
press.,
hPa
HPBL,
m
6 may, thu
thu601:00+6sw45830 0.0 101360
04:00+6wsw33843 0.0 101537
07:00+7sw348375 0.0 101679
10:00+11sw476979 0.0 1017346
13:00+13sw566379 0.0 1017471
16:00+13ssw5760100 0.0 1017408
19:00+13ssw457165 0.0 101768
22:00+11s51073100 0.0 1017108
7 may, fri
fri701:00+9s4774100 0.0 101774
04:00+8s4778100 0.0 101788
07:00+9s5979100 0.0 1017135
10:00+11s71068100 0.0 1017291
13:00+13s71057100 0.0 1017817
16:00+14ssw6955100 0.0 1016787
19:00+12s476599 0.0 1015107
22:00+11wsw4673100 0.0 1017107
8 may, sat
sat801:00+10ssw4592100 0.4 101877
04:00+10s3391100 1.4 101743
07:00+10sw119032 0.1 101857
10:00+12sse2380100 0.1 1018295
13:00+14s486513 0.0 1017542
16:00+16s575478 0.0 1016760
19:00+14sse596775 0.0 1015137
22:00+12se597073 0.0 101597
9 may, sun
sun901:00+12s4864100 0.0 1015145
04:00+12sse4969100 0.0 1014133
07:00+12sse41072100 0.0 1014211
10:00+13sse51170100 0.0 1014226
13:00+16s7106191 0.0 1013484
16:00+17s5859100 0.0 1013649
19:00+12n5895100 2.6 1015125
22:00+12nne4797100 3.3 1017146
10 may, mon
mon1001:00+10nnw6997100 0.1 1018170
04:00+10nnw6996100 0.9 1020195
07:00+9n6994100 0.3 1023178
10:00+10n71091100 0.4 1024247
13:00+11nne81086100 0.0 1025290
16:00+12nne6881100 0.0 1026357
19:00+12nne5881100 0.0 1027275
22:00+9nne59855 0.0 1028173